Canyon City, OR

9:15 PM PST on January 20, 2017 (GMT -0800)
Grant County

Weather History for KGCD - January, 2014

Change the Weather History Date:

Thursday, January 2, 2014

  Actual Average (KBNO) Record (KBNO)
Temperature  
Mean Temperature 40 °F -  
Max Temperature 50 °F 34 °F 48 °F (1997)
Min Temperature 31 °F 15 °F -18 °F (2016)
Degree Days  
Heating Degree Days 24    
Moisture  
Dew Point 30 °F    
Average Humidity 67    
Maximum Humidity 85    
Minimum Humidity 46    
Precipitation  
Precipitation 0.00 in - - ()
Sea Level Pressure  
Sea Level Pressure 30.18 in    
Wind  
Wind Speed 8 mph (East)    
Max Wind Speed 15 mph    
Max Gust Speed 20 mph    
Visibility 10 miles    
Events      
Averages and records for this station are not official NWS values.
T = Trace of Precipitation, MM = Missing Value Source: NWS Daily Summary

Daily Weather History Graph

Daily Weather History Graph

Search for Another Location

Airport or City:

Trip Planner

Search our weather history database for the weather conditions in past years. The results will help you decide how hot, cold, wet, or windy it might be!

Date:

Astronomy

Jan. 02, 2014 Rise Set
Actual Time 7:32 AM PST 4:28 PM PST
Civil Twilight 6:58 AM PST 5:01 PM PST
Nautical Twilight 6:22 AM PST 5:37 PM PST
Astronomical Twilight 5:47 AM PST 6:13 PM PST
Moon 8:12 AM PST (1/2) 6:36 PM PST (1/2)
Length of Visible Light 10h 02m
Length of Day
8h 56m
Waxing Crescent, 3% of the Moon is Illuminated
Jan 2
Waxing Crescent
Jan 7
First Quarter
Jan 15
Full
Jan 23
Last Quarter
Jan 30
New

Hourly Weather History & Observations

Time (PST) Temp. Windchill Dew Point Humidity Pressure Visibility Wind Dir Wind Speed Gust Speed Precip Events Conditions
12:15 AM 34.7 °F 28.1 °F 29.1 °F 80% 30.29 in 10.0 mi ESE 8.1 mph - N/A   Mostly Cloudy
12:35 AM 34.5 °F 28.6 °F 29.8 °F 83% 30.28 in 10.0 mi SE 6.9 mph - N/A   Scattered Clouds
12:55 AM 36.0 °F 31.1 °F 30.6 °F 81% 30.28 in 10.0 mi SE 5.8 mph - N/A   Clear
1:15 AM 35.6 °F 29.2 °F 30.2 °F 81% 30.29 in 10.0 mi SE 8.1 mph - N/A   Clear
1:35 AM 34.5 °F 28.6 °F 29.5 °F 82% 30.29 in 10.0 mi SE 6.9 mph - N/A   Scattered Clouds
1:55 AM 34.3 °F 27.0 °F 28.6 °F 79% 30.29 in 10.0 mi SE 9.2 mph - N/A   Scattered Clouds
2:15 AM 34.3 °F 27.7 °F 28.4 °F 79% 30.30 in 10.0 mi East 8.1 mph - N/A   Scattered Clouds
2:35 AM 33.1 °F 25.5 °F 28.2 °F 82% 30.29 in 10.0 mi East 9.2 mph - N/A   Clear
2:55 AM 33.1 °F 26.1 °F 28.0 °F 82% 30.29 in 10.0 mi East 8.1 mph - N/A   Clear
3:15 AM 32.4 °F 24.6 °F 28.2 °F 85% 30.29 in 10.0 mi East 9.2 mph - N/A   Clear
3:35 AM 32.7 °F 25.0 °F 28.2 °F 83% 30.29 in 10.0 mi East 9.2 mph - N/A   Clear
3:55 AM 32.9 °F 25.3 °F 28.4 °F 84% 30.28 in 10.0 mi East 9.2 mph - N/A   Clear
4:15 AM 32.0 °F 24.8 °F 27.5 °F 83% 30.27 in 10.0 mi East 8.1 mph - N/A   Clear
4:35 AM 32.0 °F 24.2 °F 27.9 °F 85% 30.27 in 10.0 mi East 9.2 mph - N/A   Clear
4:55 AM 32.0 °F 24.8 °F 27.9 °F 85% 30.27 in 10.0 mi East 8.1 mph - N/A   Clear
5:15 AM 32.0 °F 24.8 °F 27.7 °F 84% 30.27 in 10.0 mi East 8.1 mph - N/A   Clear
5:35 AM 32.4 °F 25.3 °F 27.7 °F 83% 30.26 in 10.0 mi ESE 8.1 mph - N/A   Clear
5:55 AM 32.0 °F 25.6 °F 27.5 °F 83% 30.26 in 10.0 mi East 6.9 mph - N/A   Clear
6:15 AM 32.7 °F 25.0 °F 28.6 °F 85% 30.26 in 10.0 mi ESE 9.2 mph - N/A   Clear
6:35 AM 32.0 °F 24.8 °F 27.3 °F 83% 30.27 in 10.0 mi ESE 8.1 mph - N/A   Clear
6:55 AM 31.5 °F 23.5 °F 27.1 °F 84% 30.26 in 10.0 mi East 9.2 mph - N/A   Clear
7:15 AM 32.0 °F 24.2 °F 27.5 °F 83% 30.26 in 10.0 mi ESE 9.2 mph - N/A   Clear
7:35 AM 31.1 °F 22.4 °F 27.1 °F 85% 30.25 in 10.0 mi East 10.4 mph - N/A   Clear
7:55 AM 31.1 °F 23.1 °F 27.0 °F 85% 30.26 in 10.0 mi East 9.2 mph - N/A   Clear
8:15 AM 31.3 °F 23.3 °F 26.8 °F 83% 30.26 in 10.0 mi East 9.2 mph - N/A   Clear
8:35 AM 32.4 °F 24.0 °F 27.5 °F 82% 30.26 in 10.0 mi East 10.4 mph - N/A   Clear
8:55 AM 34.5 °F 27.3 °F 28.2 °F 78% 30.26 in 10.0 mi East 9.2 mph - N/A   Clear
9:15 AM 34.7 °F 27.5 °F 28.0 °F 77% 30.26 in 10.0 mi East 9.2 mph - N/A   Clear
9:35 AM 37.8 °F 30.7 °F 29.1 °F 71% 30.26 in 10.0 mi East 10.4 mph - N/A   Clear
9:55 AM 39.6 °F 35.4 °F 29.8 °F 68% 30.26 in 10.0 mi ESE 5.8 mph - N/A   Clear
10:15 AM 40.3 °F 34.9 °F 29.3 °F 65% 30.26 in 10.0 mi East 8.1 mph - N/A   Clear
10:35 AM 41.9 °F 38.2 °F 29.3 °F 61% 30.25 in 10.0 mi East 5.8 mph - N/A   Clear
10:55 AM 41.2 °F 36.6 °F 28.9 °F 62% 30.24 in 10.0 mi ENE 6.9 mph - N/A   Clear
11:15 AM 41.7 °F 37.3 °F 29.1 °F 61% 30.23 in 10.0 mi East 6.9 mph - N/A   Clear
11:35 AM 43.3 °F 39.2 °F 29.5 °F 58% 30.22 in 10.0 mi ENE 6.9 mph - N/A   Clear
11:55 AM 43.9 °F 38.8 °F 30.4 °F 59% 30.21 in 10.0 mi East 9.2 mph - N/A   Clear
12:15 PM 46.2 °F 41.7 °F 30.0 °F 53% 30.20 in 10.0 mi East 9.2 mph - N/A   Scattered Clouds
12:35 PM 48.2 °F - 30.2 °F 50% 30.18 in 10.0 mi East 6.9 mph - N/A   Scattered Clouds
12:55 PM 47.5 °F - 30.6 °F 52% 30.17 in 10.0 mi East 6.9 mph - N/A   Clear
1:15 PM 48.4 °F - 30.7 °F 51% 30.17 in 10.0 mi East 6.9 mph - N/A   Scattered Clouds
1:35 PM 48.2 °F - 30.2 °F 50% 30.15 in 10.0 mi East 6.9 mph - N/A   Clear
1:55 PM 48.2 °F - 30.7 °F 51% 30.15 in 10.0 mi ENE 5.8 mph - N/A   Clear
2:15 PM 47.3 °F - 31.5 °F 54% 30.14 in 10.0 mi East 6.9 mph - N/A   Clear
2:35 PM 47.1 °F - 32.0 °F 56% 30.14 in 10.0 mi ENE 5.8 mph - N/A   Clear
2:55 PM 47.8 °F - 31.8 °F 54% 30.14 in 10.0 mi East 5.8 mph - N/A   Clear
3:15 PM 46.8 °F - 31.3 °F 55% 30.14 in 10.0 mi East 6.9 mph - N/A   Clear
3:35 PM 48.2 °F - 31.1 °F 52% 30.13 in 10.0 mi East 6.9 mph - N/A   Clear
3:55 PM 46.8 °F - 30.4 °F 53% 30.13 in 10.0 mi East 6.9 mph - N/A   Clear
4:15 PM 45.5 °F 41.8 °F 30.4 °F 56% 30.12 in 10.0 mi East 6.9 mph - N/A   Clear
4:35 PM 45.5 °F 41.3 °F 30.2 °F 55% 30.11 in 10.0 mi East 8.1 mph - N/A   Clear
4:55 PM 45.0 °F 41.2 °F 31.3 °F 59% 30.12 in 10.0 mi East 6.9 mph - N/A   Clear
5:15 PM 44.4 °F 40.0 °F 31.6 °F 61% 30.11 in 10.0 mi East 8.1 mph - N/A   Clear
5:35 PM 43.5 °F 39.4 °F 31.1 °F 62% 30.10 in 10.0 mi East 6.9 mph - N/A   Clear
5:55 PM 43.0 °F 38.8 °F 31.1 °F 63% 30.10 in 10.0 mi East 6.9 mph - N/A   Clear
6:15 PM 45.5 °F 41.8 °F 31.5 °F 58% 30.09 in 10.0 mi East 6.9 mph - N/A   Clear
6:35 PM 42.6 °F 38.4 °F 31.1 °F 64% 30.08 in 10.0 mi ENE 6.9 mph - N/A   Clear
6:55 PM 42.8 °F 37.5 °F 31.5 °F 64% 30.08 in 10.0 mi ESE 9.2 mph - N/A   Clear
7:15 PM 44.1 °F 39.5 °F 31.1 °F 60% 30.08 in 10.0 mi East 8.1 mph - N/A   Clear
7:35 PM 44.8 °F 40.4 °F 31.1 °F 59% 30.08 in 10.0 mi East 8.1 mph - N/A   Clear
7:55 PM 45.5 °F 41.8 °F 31.1 °F 57% 30.07 in 10.0 mi East 6.9 mph - N/A   Clear
8:15 PM 50.4 °F - 30.9 °F 47% 30.06 in 10.0 mi South 15.0 mph 18.4 mph N/A   Clear
8:35 PM 50.4 °F - 30.4 °F 46% 30.05 in 10.0 mi South 11.5 mph - N/A   Clear
8:55 PM 45.1 °F 42.0 °F 30.6 °F 57% 30.04 in 10.0 mi ESE 5.8 mph - N/A   Clear
9:15 PM 48.0 °F - 30.6 °F 51% 30.03 in 10.0 mi SE 10.4 mph 19.6 mph N/A   Clear
9:35 PM 47.1 °F - 30.2 °F 52% 30.02 in 10.0 mi ESE 5.8 mph - N/A   Clear
9:55 PM 45.5 °F 44.2 °F 30.4 °F 56% 30.03 in 10.0 mi East 3.5 mph - N/A   Clear
10:15 PM 43.0 °F 41.3 °F 30.7 °F 62% 30.01 in 10.0 mi NE 3.5 mph - N/A   Clear
10:35 PM 40.3 °F 35.5 °F 30.6 °F 68% 30.01 in 10.0 mi ENE 6.9 mph - N/A   Clear
10:55 PM 45.9 °F 40.0 °F 31.1 °F 56% 29.99 in 10.0 mi South 12.7 mph - N/A   Clear
11:15 PM 48.6 °F - 30.2 °F 49% 30.00 in 10.0 mi WSW 3.5 mph - N/A   Clear
11:35 PM 48.9 °F - 31.1 °F 50% 29.99 in 10.0 mi SW 8.1 mph - N/A   Scattered Clouds
11:55 PM 45.5 °F - 30.2 °F 55% 29.98 in 10.0 mi Calm Calm - N/A   Scattered Clouds